Norwood, MA

10:09 AM EDT on August 29, 2016 (GMT -0400)
Norwood Memorial

Weather History for KOWD - February, 2012

Change the Weather History Date:

Tuesday, February 28, 2012

  Actual Average Record
Temperature  
Mean Temperature 42 °F -  
Max Temperature 50 °F 40 °F 59 °F (2016)
Min Temperature 33 °F 22 °F -11 °F (2015)
Degree Days  
Heating Degree Days 24    
Moisture  
Dew Point 17 °F    
Average Humidity 38    
Maximum Humidity 82    
Minimum Humidity 23    
Precipitation  
Precipitation 0.00 in - - ()
Sea Level Pressure  
Sea Level Pressure 30.25 in    
Wind  
Wind Speed 8 mph (NW)    
Max Wind Speed 17 mph    
Max Gust Speed 26 mph    
Visibility 10 miles    
Events      
Averages and records for this station are not official NWS values.
T = Trace of Precipitation, MM = Missing Value Source: NWS Daily Summary

Daily Weather History Graph

Daily Weather History Graph

Search for Another Location

Airport or City:

Trip Planner

Search our weather history database for the weather conditions in past years. The results will help you decide how hot, cold, wet, or windy it might be!

Date:

Astronomy

Feb. 28, 2012 Rise Set
Actual Time 6:22 AM EST 5:32 PM EST
Civil Twilight 5:54 AM EST 6:01 PM EST
Nautical Twilight 5:21 AM EST 6:33 PM EST
Astronomical Twilight 4:49 AM EST 7:05 PM EST
Moon 9:19 AM EST (2/28) No Moon Set
Length of Visible Light 12h 06m
Length of Day
11h 10m
Waxing Crescent, 37% of the Moon is Illuminated
Feb 28
Waxing Crescent
Feb 29
First Quarter
Mar 8
Full
Mar 14
Last Quarter
Mar 22
New

Hourly Weather History & Observations

Time (EST) Temp. Windchill Dew Point Humidity Pressure Visibility Wind Dir Wind Speed Gust Speed Precip Events Conditions
12:53 AM 33.1 °F 28.7 °F 28.0 °F 82% 30.04 in 10.0 mi SSW 4.6 mph - N/A   Partly Cloudy
1:53 AM 42.1 °F 37.7 °F 27.0 °F 55% 30.04 in 10.0 mi WNW 6.9 mph - N/A   Clear
2:53 AM 42.1 °F 35.7 °F 19.9 °F 41% 30.08 in 10.0 mi WNW 11.5 mph 23.0 mph N/A   Clear
3:53 AM 41.0 °F 35.2 °F 19.9 °F 43% 30.11 in 10.0 mi West 9.2 mph 20.7 mph N/A   Overcast
4:53 AM 39.9 °F 33.4 °F 21.0 °F 47% 30.14 in 10.0 mi West 10.4 mph - N/A   Clear
5:53 AM 39.9 °F 33.9 °F 21.0 °F 47% 30.16 in 10.0 mi West 9.2 mph - N/A   Scattered Clouds
6:53 AM 39.0 °F 34.0 °F 21.9 °F 50% 30.19 in 10.0 mi West 6.9 mph - N/A   Clear
7:53 AM 42.1 °F 35.7 °F 21.9 °F 45% 30.22 in 10.0 mi WNW 11.5 mph - N/A   Clear
8:53 AM 44.1 °F 36.8 °F 21.9 °F 42% 30.22 in 10.0 mi WNW 16.1 mph 25.3 mph N/A   Clear
9:53 AM 45.0 °F 37.6 °F 19.9 °F 37% 30.25 in 10.0 mi WNW 17.3 mph 23.0 mph N/A   Mostly Cloudy
10:53 AM 46.0 °F 41.0 °F 19.0 °F 34% 30.25 in 10.0 mi NW 10.4 mph 23.0 mph N/A   Scattered Clouds
11:53 AM 48.9 °F - 19.0 °F 31% 30.26 in 10.0 mi WNW 12.7 mph 20.7 mph N/A   Mostly Cloudy
12:53 PM 48.9 °F - 18.0 °F 29% 30.26 in 10.0 mi WNW 17.3 mph 26.5 mph N/A   Partly Cloudy
1:53 PM 50.0 °F - 14.0 °F 24% 30.26 in 10.0 mi WNW 12.7 mph 21.9 mph N/A   Clear
2:53 PM 48.0 °F - 12.9 °F 24% 30.27 in 10.0 mi North 9.2 mph - N/A   Clear
3:53 PM 46.9 °F - 10.9 °F 23% 30.29 in 10.0 mi NNW 11.5 mph - N/A   Clear
4:53 PM 45.0 °F 39.3 °F 9.0 °F 23% 30.29 in 10.0 mi NNW 11.5 mph 18.4 mph N/A   Clear
5:53 PM 42.1 °F 37.7 °F 9.0 °F 26% 30.33 in 10.0 mi NNW 6.9 mph - N/A   Clear
6:53 PM 39.9 °F 35.8 °F 10.9 °F 31% 30.35 in 10.0 mi North 5.8 mph - N/A   Clear
7:53 PM 37.9 °F - 10.0 °F 32% 30.37 in 10.0 mi Calm Calm - N/A   Clear
8:53 PM 35.1 °F 32.2 °F 10.9 °F 37% 30.38 in 10.0 mi North 3.5 mph - N/A   Clear
9:53 PM 34.0 °F - 12.0 °F 40% 30.39 in 10.0 mi Calm Calm - N/A   Clear
10:53 PM 34.0 °F 31.0 °F 12.0 °F 40% 30.39 in 10.0 mi North 3.5 mph - N/A   Partly Cloudy
11:53 PM 34.0 °F - 12.0 °F 40% 30.39 in 10.0 mi Calm Calm - N/A   Overcast